STARLINK-2246 (48590 NORAD) Tracking and Keplerian Element Data

This shows tracking and keplerian element data for the satellite.

Feedback or suggestion? Click here.




ElementValue
Catalog48590
NameSTARLINK-2246
Epoch Orbit1217
Epoch Day214.91667824
Epoch Year2021
RAAN122.4035
Inclination53.0543
Eccentricity0.0001879
Argument of Perigee81.6891
Mean Anonmoly332.1668
Mean Motion15.06415949
Decay Rate-0.00033183
L11 48590U 21041AP 21214.91667824 -.00033183 00000-0 -22182-2 0 9994
L22 48590 53.0543 122.4035 0001879 81.6891 332.1668 15.06415949 12177

Live tracking and technical data element details for STARLINK-2246 (NORAD 48590). STARLINK-2246 can be tracked NOW for your location showing map with azimuth and elevation plus other details from your city location.

Track the satellite on the map from your city or location and see movement details for azimuth, elevation, latitude, longitude, range, height, and movement on the map or in text.







IsCatalogInMostPopularTable: catalog: 48590, numindb: 21
Update: records affected: 1



GetName: 48590 STARLINK-2246

Hit Count: updated at: Tue, 03 Aug 2021 21:35:45 GMT